Location: ????????
(55.4000°N, 39.1167°E)
Time: 07:23:28
(UTC+00:00)

NOSS 3-1 (C) - Pass Details

Date: 19 May 2025
Orbit: 625 x 1577 km, 63.4° (Epoch: 18 June)

Event Time Altitude Azimuth Distance (km) Brightness Sun altitude
Rises 20:21:16 0° 241° (WSW) 3,071 6.0 -13.6°
Reaches altitude 10° 20:23:25 10° 244° (WSW) 2,235 5.3 -13.7°
Maximum altitude 20:28:29 68° 328° (NNW) 906 3.6 -13.8°
Drops below altitude 10° 20:34:53 10° 52° (NE) 2,799 6.3 -14.0°
Sets 20:37:51 0° 55° (NE) 3,912 7.0 -14.1°
